This demonstration page uses our WeatherBlox Daily Observations layout. Learn more.

Left ArrowRight Arrow

34.74481, -87.66753

Hourly Observations for April 13, 2015

Temp ( °F °C ) Dew Point ( °F °C ) Humidity (%) Winds ( mph kmh ) Pressure ( in mb ) Visibility ( mi km ) Precip ( " mm )
12:53 am 00:53 Clear 67 19.4 61 16.1 81 81 SE 9 15 30.07 1018 10 16 0.00 0.00
1:27 am 01:27 Mostly Cloudy 67 19.4 60 15.6 79 79 SE 7 11 30.03 1017 10 16 0.00 0.00
1:53 am 01:53 Cloudy 67 19.4 60 15.6 79 79 SSE 13 20 30.05 1018 10 16 0.00 0.00
2:53 am 02:53 Cloudy 67 19.4 60 15.6 79 79 SE 15 24 30.04 1017 10 16 0.00 0.00
3:53 am 03:53 Cloudy 67 19.4 60 15.6 79 79 SSE 13 20 30.06 1018 10 16 0.00 0.00
4:53 am 04:53 Cloudy 67 19.4 60 15.6 79 79 SE 9 15 30.05 1018 10 16 0.00 0.00
5:49 am 05:49 Cloudy 66 19 61 16 83 83 SE 9 15 30.06 1018 10 16 0.00 0.00
5:53 am 05:53 Cloudy 66 18.9 61 16.1 84 84 SE 7 11 30.08 1019 N/A 0.00 0.00
6:53 am 06:53 Cloudy 66 18.9 61 16.1 84 84 E 5 7 30.10 1019 N/A 0.00 0.00
7:23 am 07:23 Cloudy 66 18.9 61 16.1 84 84 ESE 6 9 30.09 1019 N/A 0.00 0.00
7:53 am 07:53 Cloudy with Light Rain 66 18.9 61 16.1 84 84 ESE 6 9 30.10 1019 N/A 0.00 0.03
8:53 am 08:53 Cloudy 66 18.9 62 16.7 87 87 E 7 11 30.09 1019 N/A 0.00 0.03
9:53 am 09:53 undefined 67 19.4 63 17.2 87 87 E 7 11 30.08 1019 N/A 0.05 1.27
10:53 am 10:53 Cloudy 68 20 64 17.8 87 87 SE 9 15 30.08 1019 N/A 0.00 0.00
11:53 am 11:53 Cloudy 69 20.6 64 17.8 84 84 SSE 7 11 30.07 1018 N/A 0.00 0.00
12:25 pm 12:25 Cloudy 71 21.7 65 18.3 81 81 SE 7 11 30.03 1017 N/A 0.00 0.00
12:53 pm 12:53 Cloudy 71 21.7 64 17.8 79 79 SSE 8 13 30.04 1017 N/A 0.00 0.00
1:53 pm 13:53 Cloudy 72 22.2 67 19.4 84 84 SE 8 13 30.02 1017 N/A 0.06 1.52
2:48 pm 14:48 Cloudy with Light Rain 72 22 66 19 83 83 SE 6 9 30.00 1016 N/A 0.03 0.76
2:53 pm 14:53 Cloudy 71 21.7 67 19.4 87 87 SSE 9 15 30.00 1016 N/A 0.03 0.76
3:09 pm 15:09 Cloudy with Rain 70 21.1 67 19.4 90 90 SSE 9 15 29.97 1015 N/A 0.05 1.27
3:46 pm 15:46 Cloudy 71 21.7 68 20 90 90 ESE 7 11 29.97 1015 N/A 0.08 2.03
3:53 pm 15:53 Cloudy 71 21.7 68 20 90 90 ESE 5 7 29.98 1015 N/A 0.08 2.03
4:03 pm 16:03 Cloudy 71 21.7 67 19.4 87 87 ESE 6 9 29.97 1015 N/A 0.00 0.00
4:15 pm 16:15 Cloudy 72 22.2 67 19.4 84 84 ESE 5 7 29.97 1015 N/A 0.00 0.00
4:53 pm 16:53 Cloudy 72 22.2 68 20 87 87 SSE 3 6 29.97 1015 N/A 0.00 0.03
5:11 pm 17:11 Mostly Cloudy 73 22.8 68 20 84 84 Calm 29.97 1015 N/A 0.00 0.00
5:42 pm 17:42 Cloudy with Light Rain 72 22.2 68 20 87 87 SE 7 11 29.94 1014 N/A 0.03 0.76
5:53 pm 17:53 Mostly Cloudy 72 22.2 68 20 87 87 S 9 15 29.97 1015 N/A 0.03 0.76
6:17 pm 18:17 Cloudy with Light Rain 71 21.7 67 19.4 87 87 SW 5 7 29.97 1015 N/A 0.03 0.76
6:33 pm 18:33 Cloudy 71 21.7 67 19.4 87 87 SE 6 9 29.97 1015 N/A 0.03 0.76
6:53 pm 18:53 Mostly Cloudy 71 21.7 67 19.4 87 87 SSE 8 13 29.98 1015 N/A 0.03 0.76
7:53 pm 19:53 Cloudy with Light Rain 69 20.6 66 18.9 90 90 SSE 6 9 29.98 1015 N/A 0.05 1.27
8:53 pm 20:53 Mostly Cloudy with Light Rain 69 20.6 66 18.9 90 90 ESE 3 6 29.99 1016 N/A 0.05 1.27
9:53 pm 21:53 Mostly Cloudy 68 20 66 18.9 93 93 E 3 6 30.00 1016 N/A 0.00 0.03
10:05 pm 22:05 Cloudy 68 20 66 18.9 93 93 Calm 30.00 1016 N/A 0.00 0.00
10:21 pm 22:21 Cloudy 68 20 66 18.9 93 93 ESE 3 6 30.00 1016 N/A 0.00 0.00
10:53 pm 22:53 Cloudy with Light Rain 68 20 66 18.9 93 93 SE 3 6 30.00 1016 N/A 0.01 0.25
11:53 pm 23:53 Cloudy 69 20.6 66 18.9 90 90 SE 5 7 29.99 1016 N/A 0.00 0.03

Powered by AerisWeather